Hourly Data Report for October 16, 2016

All times are specified in Local Standard Time (LST). Add 1 hour to adjust for Daylight Saving Time where and when it is observed.

MONCTON INTL A
NEW BRUNSWICK

46°06'44.000" N
64°40'43.000" W
70.70 m
8103201
71705
YQM

Download Data

Hourly Data (October 2016)
Hourly Data Report for October 16, 2016
Temp Definition
°C
Dew Point Temp Definition
°C
Rel Hum Definition
%
Wind Dir Definition
10's deg

Wind Spd Definition
km/h
Visibility Definition
km
Stn Press Definition
kPa
Hmdx Definition


Wind Chill Definition


Weather Definition


TIME
00:00 Legend Double Dagger 1.3 0.3 93 20 9 24.1 101.74     LegendNANA
01:00 Legend Double Dagger 1.0 0.3 95 20 8 24.1 101.67     LegendNANA
02:00 Legend Double Dagger 1.8 0.5 91 17 7 24.1 101.59     Mostly Cloudy
03:00 Legend Double Dagger 3.5 2.0 90 16 7 24.1 101.51     LegendNANA
04:00 Legend Double Dagger 0.9 0.2 95 24 5 24.1 101.46     LegendNANA
05:00 Legend Double Dagger 1.5 1.1 97 19 8 24.1 101.39     Mostly Cloudy
06:00 Legend Double Dagger 1.6 0.3 91 21 5 24.1 101.36     LegendNANA
07:00 Legend Double Dagger 1.3 0.1 92 24 8 24.1 101.30     LegendNANA
08:00 Legend Double Dagger 2.5 1.9 96 20 7 24.1 101.23     Mostly Cloudy
09:00 Legend Double Dagger 8.3 5.1 80 18 14 24.1 101.15     LegendNANA
10:00 Legend Double Dagger 11.6 4.2 60 20 20 24.1 101.09     LegendNANA
11:00 Legend Double Dagger 12.5 5.0 60 20 21 24.1 100.92     Mostly Cloudy
12:00 Legend Double Dagger 14.8 5.7 54 21 22 24.1 100.79     LegendNANA
13:00 Legend Double Dagger 15.8 6.9 55 17 24 24.1 100.60     LegendNANA
14:00 Legend Double Dagger 15.7 5.1 49 23 35 24.1 100.55     Mostly Cloudy
15:00 Legend Double Dagger 14.4 6.6 59 21 37 24.1 100.50     LegendNANA
16:00 Legend Double Dagger 13.0 7.3 68 21 33 24.1 100.38     LegendNANA
17:00 Legend Double Dagger 12.2 7.9 75 21 28 24.1 100.31     Mostly Cloudy
18:00 Legend Double Dagger 11.8 8.3 79 21 26 24.1 100.23     LegendNANA
19:00 Legend Double Dagger 12.3 9.2 81 21 22 24.1 100.17     LegendNANA
20:00 Legend Double Dagger 12.4 9.4 82 21 25 24.1 100.07     Mostly Cloudy
21:00 Legend Double Dagger 12.4 9.8 84 21 18 24.1 100.05     LegendNANA
22:00 Legend Double Dagger 12.8 10.4 85 21 18 24.1 99.99     LegendNANA
23:00 Legend Double Dagger 12.7 10.8 88 21 17 24.1 99.91     Mostly Cloudy

Notes on Data Quality.

Legend

  • E = Estimated
  • M = Missing
  • NA = Not Available
  • ‡ = Partner data that is not subject to review by the National Climate Archives
Date modified: